Location: Bacharowice
(49.9333°N, 19.5833°E)
Time: 13:04:39
(UTC+00:00)

Cosmos 2366 rocket - Pass Details

Date: 11 May 2021
Orbit: 956 x 996 km, 82.9° (Epoch: 22 June)

Event Time Altitude Azimuth Distance (km) Brightness Sun altitude
Rises 21:44:53 0° 349° (N) 3,653 8.6 -20.9°
Reaches altitude 10° 21:47:23 10° 348° (NNW) 2,705 7.5 -21.0°
Maximum altitude 21:53:34 79° 263° (W) 989 4.0 -21.2°
Enters shadow 21:56:01 39° 184° (S) 1,407 4.3 -21.3°
